Theta_e
334 334 334 334 334 334 334 334 334 334 334 334 334 334 335 335 333 334 334 334 334 334 335 334 334 334 334 334 334 333 334 333 332 331 331 330 322 319 329 336 329 329 335 335 336 334 332 332 331 332 330 330 330 330 332 335 339 338 335 333 330 329
335 335 335 334 334 335 334 334 334 333 333 333 334 334 334 334 333 333 334 334 334 334 334 334 334 335 334 334 334 333 334 334 334 334 334 334 327 320 327 331 326 330 336 335 335 333 332 332 333 334 332 331 330 330 333 334 337 339 336 333 331 330
334 335 335 335 335 335 334 334 334 334 333 333 334 334 334 333 333 333 334 333 334 333 333 334 335 336 336 335 334 333 333 334 334 335 334 335 332 324 324 326 328 333 335 334 334 333 332 332 334 335 333 332 331 330 331 332 335 338 337 334 332 331
335 335 335 334 334 334 334 334 333 333 333 333 333 333 334 333 332 333 333 333 333 333 333 334 334 335 336 335 334 333 333 334 334 335 335 334 334 331 327 328 332 333 332 333 332 332 332 333 333 333 333 333 332 331 332 332 333 336 337 335 333 331
335 334 334 333 333 333 333 334 333 333 334 333 333 333 333 333 332 333 333 333 333 333 333 333 333 334 334 334 334 333 333 333 333 334 335 334 333 333 330 329 329 330 331 331 331 332 333 332 333 332 333 332 332 332 331 332 332 334 336 335 334 332
334 334 334 333 333 333 334 334 334 334 334 334 334 333 333 334 333 333 333 333 334 334 334 333 334 334 333 333 334 334 334 333 332 333 334 334 333 333 333 331 330 330 332 333 333 333 333 333 333 332 332 332 331 331 331 331 331 333 336 334 334 332
335 336 336 336 335 336 336 336 335 335 335 335 335 334 335 334 333 333 332 333 333 334 334 334 334 334 333 334 334 334 334 333 333 334 334 333 333 334 334 333 333 333 333 334 334 334 335 333 332 332 331 331 331 331 331 331 331 332 334 334 333 333
337 337 337 338 338 337 337 337 337 336 337 336 336 336 336 335 334 333 334 334 333 333 334 334 334 334 333 333 333 333 333 333 333 333 334 333 333 333 333 333 333 333 333 333 334 333 333 333 332 331 331 331 331 331 332 331 331 331 333 334 334 332
338 338 338 338 338 337 337 337 337 337 337 336 335 335 335 335 335 334 333 334 334 333 333 334 334 334 333 332 332 332 332 333 332 332 333 332 332 332 332 333 333 332 332 332 332 332 332 332 332 331 330 330 330 331 332 331 330 331 333 334 333 332
337 337 337 337 337 336 336 336 336 336 337 335 334 334 335 334 334 333 331 332 333 334 334 335 334 334 334 333 332 332 332 332 332 332 332 332 332 332 332 332 332 332 332 332 332 332 331 332 333 332 331 331 331 332 333 331 330 331 332 333 334 332
337 337 336 337 336 336 335 335 336 337 336 335 334 333 334 334 333 332 329 330 333 333 333 335 335 334 334 334 333 333 332 332 332 332 332 333 332 332 332 332 333 333 333 333 333 332 332 333 333 333 333 332 332 333 334 332 331 330 331 333 334 332
338 337 337 337 337 336 335 336 336 336 335 334 333 332 333 333 333 332 331 332 334 333 333 334 334 334 334 334 334 333 333 333 333 333 332 333 332 332 334 334 335 335 334 334 334 333 333 333 333 333 333 332 333 334 333 332 331 330 330 330 332 332
338 338 337 337 337 337 336 335 335 335 334 333 332 331 330 332 333 333 334 334 334 334 333 333 333 334 334 333 334 334 333 333 333 333 334 334 334 333 333 335 335 335 335 334 334 334 333 333 333 333 333 332 333 332 331 331 331 331 330 329 330 331
337 337 337 337 337 337 336 335 335 334 333 332 331 330 329 330 332 333 334 334 334 334 333 333 333 333 334 333 333 333 332 332 332 333 333 333 334 334 334 334 334 334 333 333 333 334 334 334 333 333 333 333 333 332 332 331 331 330 331 330 329 330
336 336 336 336 336 335 335 335 334 333 331 332 331 330 329 328 329 331 333 334 333 333 332 332 332 330 332 333 332 332 332 332 332 332 332 332 332 333 334 334 334 333 333 333 333 334 333 334 334 333 333 333 332 333 332 331 331 331 331 330 330 330
335 335 333 333 334 334 334 334 333 331 329 330 330 329 329 328 328 329 330 332 332 333 332 332 331 328 330 333 332 332 332 332 332 332 332 332 332 332 332 332 332 332 333 333 333 333 333 334 333 333 333 332 333 332 332 331 331 332 332 331 331 331
333 333 332 332 331 331 332 331 330 328 326 327 329 329 329 328 328 328 329 331 331 332 332 332 332 329 329 331 332 332 332 331 332 332 332 332 332 332 332 332 331 331 332 333 333 333 333 333 333 333 332 332 332 332 332 332 331 332 333 333 332 332
331 332 332 332 331 330 329 329 327 327 326 327 329 329 329 329 329 330 330 331 331 331 331 330 331 331 329 330 331 331 331 330 331 332 332 331 331 332 331 332 332 332 332 332 332 332 332 332 331 331 331 331 331 331 331 331 331 332 333 333 333 332
331 332 333 332 331 331 330 328 327 327 327 327 328 328 328 329 329 329 330 330 330 330 330 329 329 331 330 330 330 330 331 331 330 331 331 331 331 331 330 331 330 330 331 331 330 331 331 331 331 331 331 330 330 330 330 330 331 331 332 333 333 332
331 332 333 332 330 330 330 329 328 327 327 327 327 327 327 327 327 327 327 328 328 329 329 329 329 330 330 330 329 329 330 330 331 331 330 331 330 330 330 330 329 329 330 330 329 329 330 330 330 331 330 328 328 328 329 329 330 331 332 332 332 333
330 331 332 332 330 330 330 330 330 329 329 328 327 327 326 326 326 327 326 326 326 327 328 327 326 327 328 329 329 329 329 329 330 330 330 330 330 330 330 330 330 330 330 330 329 328 328 329 329 330 329 327 326 324 326 328 329 331 332 333 332 332
329 329 329 330 330 330 331 331 331 330 329 328 328 327 326 326 326 326 326 326 326 326 326 325 324 324 325 327 327 326 327 327 328 329 329 330 330 330 330 330 331 331 330 329 329 329 329 329 330 329 328 328 329 325 322 324 327 330 330 331 332 332
327 327 326 327 328 328 328 329 330 330 329 329 329 328 328 327 326 326 325 325 325 325 325 325 325 325 325 326 326 325 325 326 326 327 328 328 328 329 329 329 329 330 331 330 330 329 329 329 329 329 328 329 331 328 325 325 327 327 326 329 332 333
325 325 325 325 325 325 325 326 327 327 327 327 327 327 327 326 326 326 326 325 325 325 325 325 325 325 325 325 326 325 325 325 325 324 325 325 326 327 328 329 329 329 330 330 330 329 329 329 328 329 328 328 328 328 331 331 326 324 323 325 330 333
324 324 323 323 323 323 323 322 322 323 323 324 323 322 323 323 323 325 325 325 326 326 325 325 324 325 325 325 325 325 325 324 325 325 324 324 324 325 326 328 329 329 328 328 329 329 329 329 328 329 329 328 329 330 335 331 323 321 320 319 325 332
322 322 321 321 320 320 320 320 319 320 321 322 321 319 319 320 321 321 322 323 324 325 326 325 325 325 325 325 325 325 325 325 325 325 324 324 325 324 325 326 326 326 326 326 327 328 329 329 329 329 328 328 328 329 331 328 325 326 325 321 323 329
321 320 319 319 318 318 318 318 317 318 319 320 319 318 318 318 319 319 320 319 321 322 323 323 323 324 324 324 325 325 324 324 324 324 324 324 324 324 324 325 324 324 324 324 326 327 328 328 329 328 328 328 326 326 327 327 328 329 328 327 325 324
320 319 318 318 317 317 316 316 316 316 317 317 318 317 317 317 317 318 319 318 319 319 319 319 320 320 321 322 323 322 321 321 322 323 324 324 324 324 324 324 324 324 324 325 326 327 327 328 328 328 327 327 326 326 325 325 327 327 326 327 327 324
318 318 318 317 316 316 315 315 315 315 315 315 317 318 318 318 316 316 317 317 318 318 318 317 317 317 318 319 319 319 318 318 319 320 321 322 322 323 324 323 324 324 324 324 326 328 328 328 329 328 325 325 325 326 325 324 326 325 324 325 327 327
317 317 316 316 316 316 315 315 314 315 315 314 315 316 316 318 317 315 315 316 317 319 318 317 316 316 316 316 316 316 316 317 318 319 320 320 320 321 322 322 323 324 324 324 324 325 327 328 328 325 323 323 323 323 324 324 324 325 324 323 325 326
316 316 316 315 315 316 315 314 314 314 315 314 314 315 315 318 317 315 314 314 316 318 317 316 316 315 315 315 315 314 315 315 316 316 317 317 316 317 319 320 321 322 323 324 323 324 324 325 326 325 324 324 324 322 322 322 324 324 324 323 324 326
315 315 315 315 315 315 314 314 314 314 314 314 314 314 315 316 314 314 314 314 315 315 314 313 314 314 315 315 315 315 314 315 314 313 313 313 313 315 318 320 320 320 322 323 323 324 323 323 325 325 326 325 324 324 322 321 322 323 324 324 324 326
314 314 314 315 314 313 312 312 312 313 313 313 314 315 314 313 313 312 313 314 314 313 312 311 312 313 313 314 315 315 315 315 314 313 312 312 312 313 316 319 321 320 320 321 322 323 323 323 324 325 326 326 325 325 324 323 322 322 323 323 322 323
314 314 315 315 313 312 311 311 311 312 313 313 314 315 314 313 313 311 312 313 313 312 312 311 312 312 313 313 313 313 314 314 313 312 312 312 312 312 313 316 320 320 319 320 322 322 322 323 323 324 324 325 325 325 325 325 324 323 323 323 323 322
314 314 314 314 312 311 311 311 311 312 313 313 314 315 314 312 312 311 311 311 312 312 313 312 312 312 312 311 311 310 311 311 311 311 311 312 312 311 311 312 315 319 320 320 320 320 321 322 323 323 323 323 324 324 324 324 324 324 325 324 324 323
315 314 314 313 312 311 311 311 311 310 311 312 313 314 314 312 311 310 311 311 310 312 313 312 311 312 311 309 309 309 309 309 309 310 310 311 310 311 311 311 315 319 319 317 315 316 318 320 321 321 322 322 323 323 323 323 323 323 324 324 325 324
315 314 313 312 311 310 310 310 310 309 310 311 312 313 313 311 310 311 310 310 310 310 311 311 310 311 310 309 308 308 309 309 309 310 310 310 310 309 310 312 316 318 316 313 312 312 314 317 319 320 320 321 321 322 322 322 322 322 323 324 324 324
Wind_Speed
6 8 9 9 8 7 7 7 7 7 6 6 6 6 5 5 4 4 3 2 3 2 1 2 2 2 2 2 2 2 1 1 1 1 2 3 4 1 3 4 4 4 4 3 2 2 1 2 2 3 3 3 3 3 4 4 5 4 8 14 17 16
6 8 8 8 7 6 6 7 7 6 6 5 5 5 5 5 5 5 4 3 3 2 1 1 1 1 1 1 0 1 1 1 1 1 1 2 4 1 3 4 4 4 3 3 3 3 1 1 2 4 4 4 4 3 4 3 4 3 5 11 17 16
6 7 7 6 6 5 6 7 6 5 5 5 4 5 5 5 5 5 5 4 3 3 2 2 1 1 1 2 1 1 1 2 2 1 1 0 2 1 2 3 4 4 4 3 3 2 1 2 3 5 5 5 5 5 5 5 4 3 2 7 15 18
8 8 8 8 7 6 6 7 6 5 5 5 5 5 6 6 6 6 6 6 5 4 4 3 3 2 3 3 3 2 2 2 2 2 2 2 1 1 1 2 4 4 3 3 3 2 3 4 4 6 6 7 8 7 8 7 7 5 5 5 12 18
10 10 9 9 8 8 8 8 7 7 7 6 7 7 7 7 7 7 7 6 5 5 4 5 5 4 4 4 4 3 3 3 2 2 2 3 2 2 1 2 3 3 3 2 3 3 4 4 5 6 6 7 9 9 9 9 9 8 8 6 10 18
10 10 11 10 9 9 9 10 9 8 7 7 7 8 8 8 8 7 6 6 5 6 5 5 5 4 4 4 4 4 4 4 3 3 3 4 3 3 3 3 3 4 3 2 3 4 5 5 7 9 9 9 10 11 11 10 9 8 10 7 9 16
10 10 10 10 9 9 9 9 8 7 7 7 7 7 7 7 8 7 6 6 6 7 6 6 5 5 5 4 3 5 5 4 4 4 5 5 4 4 4 5 5 5 4 5 5 6 7 8 10 11 11 11 10 10 11 9 6 5 10 10 10 15
8 7 7 7 7 7 7 7 6 7 6 5 5 5 5 6 6 7 6 6 6 7 6 6 5 5 6 5 5 6 4 4 5 5 5 5 5 4 5 6 6 7 7 7 8 8 9 11 11 11 11 11 8 7 7 6 4 3 8 12 11 14
7 6 6 6 6 6 6 6 6 5 4 4 3 4 4 4 5 6 6 6 6 6 6 6 5 6 7 7 7 6 3 3 4 4 4 4 4 4 4 5 6 7 7 8 8 8 10 11 10 9 9 9 6 5 5 4 3 2 7 12 13 16
7 6 6 7 6 5 6 6 5 3 4 5 3 2 2 3 3 5 6 5 6 7 6 6 6 6 7 7 6 5 3 3 4 3 3 3 3 3 4 4 4 5 6 6 7 7 9 9 8 7 7 7 6 6 5 4 3 3 5 9 12 16
8 7 7 8 7 6 6 5 4 3 5 6 3 0 2 2 3 4 5 5 6 6 7 6 5 6 7 6 5 4 2 2 3 1 1 2 3 4 4 4 4 5 5 5 6 6 7 8 8 7 7 7 7 6 6 5 3 3 4 7 10 15
7 7 7 7 7 6 5 4 4 5 6 6 3 0 2 2 3 3 3 4 5 6 7 7 6 5 6 6 4 4 3 2 2 1 0 1 3 4 4 5 6 6 7 7 7 6 6 8 9 9 9 10 9 5 6 8 5 5 6 7 9 13
8 7 7 6 7 6 5 5 6 7 7 4 2 2 1 1 1 3 3 2 3 5 6 6 6 4 5 6 5 4 4 3 2 2 1 0 2 4 4 5 7 8 9 9 9 7 7 9 10 10 10 12 11 6 7 11 10 11 11 10 10 12
10 8 7 7 7 8 7 7 7 9 8 5 3 4 4 2 1 1 2 2 3 4 5 5 6 4 3 4 4 4 4 3 3 2 1 1 2 3 3 4 5 7 8 8 8 8 8 10 10 10 10 11 11 8 9 10 10 13 15 13 12 13
13 11 10 9 8 8 8 8 8 9 8 6 5 6 6 4 3 2 1 1 2 3 3 5 7 5 2 3 2 1 2 3 4 3 3 4 4 2 1 2 4 5 6 6 7 8 8 9 9 10 9 9 9 10 11 10 9 11 13 14 14 15
14 13 12 11 8 8 8 8 8 9 9 7 6 7 7 6 4 4 3 3 4 4 2 3 7 7 3 3 3 1 1 2 2 2 3 5 4 3 2 3 4 5 5 5 7 8 8 8 9 9 8 9 9 10 11 10 10 10 10 11 13 15
15 12 12 12 10 9 8 7 7 8 9 9 8 8 8 7 5 5 4 4 6 7 5 4 6 7 5 4 4 3 2 3 1 1 2 2 2 4 4 4 4 5 5 5 6 8 8 9 9 9 9 9 9 10 10 10 10 11 11 11 13 14
16 14 14 13 12 11 10 9 8 9 10 10 11 10 9 9 8 7 6 6 7 8 7 6 5 5 6 6 6 5 4 4 4 3 3 2 2 4 4 3 4 4 4 4 6 6 7 8 9 10 10 11 11 11 11 11 11 11 12 12 13 14
17 15 15 15 13 12 12 12 10 10 10 11 12 12 11 11 10 9 8 8 9 9 8 8 6 4 5 5 6 6 6 6 6 6 6 5 5 5 4 3 4 4 4 5 6 6 7 7 8 9 10 12 12 13 13 12 13 13 13 14 14 14
17 15 14 16 16 14 14 14 14 14 14 14 14 13 13 13 12 11 11 10 9 10 9 8 7 6 5 5 6 6 6 6 7 8 8 8 8 9 7 7 6 5 6 7 7 8 8 9 10 10 11 11 11 11 12 12 14 15 14 15 16 15
18 17 16 16 17 17 16 16 16 16 17 18 17 16 15 15 14 13 13 12 12 11 10 9 9 8 8 7 6 6 7 7 7 7 8 9 10 10 10 11 10 9 9 9 9 9 9 11 10 9 10 11 13 11 9 9 11 15 16 16 16 15
20 19 19 18 17 17 16 15 14 15 17 19 19 20 19 18 16 16 16 16 15 14 13 12 12 11 9 8 7 7 8 8 8 8 7 7 8 9 11 12 12 14 13 10 10 9 10 10 7 6 6 9 12 10 8 8 6 9 12 16 17 16
21 21 20 19 19 19 17 16 14 14 16 17 18 19 19 19 19 19 20 20 19 17 16 15 15 14 12 11 10 10 10 10 10 10 9 9 8 9 11 13 13 15 14 12 12 10 10 8 5 6 6 4 4 6 7 6 5 9 11 10 15 16
20 21 20 19 20 19 19 18 17 16 16 16 17 18 18 19 19 19 20 21 21 20 20 19 18 18 16 15 14 13 13 13 13 13 12 12 11 11 12 14 14 14 14 14 14 13 12 10 7 5 3 2 1 2 3 3 7 14 12 8 9 14
19 20 19 19 19 19 20 20 20 19 19 19 20 21 21 21 20 19 19 20 19 19 19 20 20 20 19 18 18 17 16 16 16 15 15 14 13 12 12 13 13 13 14 13 15 16 14 12 9 6 3 3 2 2 3 3 6 9 11 12 7 10
19 19 19 19 19 20 21 21 22 22 21 20 21 22 22 21 20 20 19 19 18 17 17 18 20 20 20 20 19 19 19 19 18 17 17 16 15 14 13 12 12 13 14 14 15 15 15 13 10 9 7 6 6 5 6 5 3 4 10 13 7 4
18 18 19 19 20 20 21 22 22 21 21 19 19 19 19 19 18 18 18 19 18 18 17 18 18 18 18 18 18 19 20 20 20 19 18 18 17 16 15 14 13 13 14 14 14 14 15 15 12 11 9 9 10 11 10 8 4 3 5 8 9 8
16 17 18 18 19 20 21 21 21 20 19 18 16 16 16 17 18 18 18 19 19 18 18 18 18 18 18 18 18 19 20 20 20 19 19 18 18 18 17 16 15 14 14 13 13 13 14 15 15 14 13 12 12 12 12 11 10 8 3 3 9 12
16 16 16 16 17 18 19 20 20 20 19 18 16 15 14 14 16 18 18 19 19 17 18 19 19 18 18 18 19 19 19 20 20 19 19 18 18 18 18 18 18 17 17 15 14 13 14 15 16 15 15 15 15 14 13 12 12 11 8 4 4 6
15 15 15 15 15 15 18 19 20 20 19 20 19 17 17 15 15 18 18 19 19 17 17 19 19 19 18 18 19 19 19 19 19 19 19 19 20 20 19 18 18 18 18 17 15 15 15 17 17 15 15 17 17 18 16 11 8 8 7 6 4 4
14 13 13 15 15 15 17 20 20 20 19 20 20 19 19 17 17 19 19 19 20 18 18 19 19 19 18 18 18 18 18 17 18 19 19 20 21 21 20 18 18 18 18 18 17 16 16 17 18 16 14 15 15 16 17 15 14 12 8 5 4 4
12 11 11 13 15 16 18 20 20 20 20 20 20 19 19 19 19 20 20 19 19 19 20 22 21 20 19 20 19 17 18 17 17 19 19 19 20 21 20 17 18 18 18 18 18 18 18 19 18 15 13 14 15 15 18 21 23 21 14 10 8 4
9 9 9 11 15 17 18 18 18 17 18 18 18 17 16 18 20 21 20 19 19 20 22 23 23 21 20 21 20 19 20 19 17 18 18 19 20 20 19 17 17 18 19 20 19 19 20 19 18 16 13 14 15 15 17 20 23 24 20 15 10 6
8 8 9 11 14 15 15 14 13 13 14 14 14 13 14 17 20 21 19 17 18 19 20 21 22 21 21 22 21 20 21 19 18 19 19 19 20 21 21 19 17 18 19 21 21 20 20 19 18 17 15 14 14 15 17 19 20 21 20 18 14 9
6 7 10 11 11 13 13 12 11 11 11 10 10 9 11 14 16 18 17 16 17 17 16 18 21 21 21 22 22 22 22 21 21 21 20 20 21 22 23 21 18 17 18 20 21 21 20 19 18 17 16 15 16 16 17 18 19 19 19 19 19 17
5 7 11 11 11 12 12 11 10 9 9 9 10 9 8 11 13 15 15 15 17 16 14 17 20 20 20 21 22 23 22 22 22 21 20 20 21 22 23 21 17 16 17 19 21 22 22 20 20 19 18 17 17 18 18 18 19 20 20 20 21 21
5 8 11 10 11 12 11 10 10 9 8 8 9 10 8 10 12 13 13 13 15 14 14 16 19 18 19 21 22 23 23 23 22 20 20 21 21 22 22 20 16 14 18 21 22 23 23 21 21 20 20 20 20 20 20 19 20 20 21 21 22 22
Wind_Direction
72 69 63 61 59 56 56 53 50 47 45 42 48 54 49 50 48 47 43 51 60 63 69 51 59 50 42 40 46 64 61 96 125 55 11 2 6 289 192 215 238 199 204 225 246 256 310 11 9 1 344 344 330 343 26 48 56 94 176 196 199 192
77 71 65 60 56 56 57 51 49 45 39 31 40 44 36 38 30 36 39 26 26 10 2 25 60 45 309 289 46 106 163 161 167 137 42 355 9 54 188 214 207 185 209 226 240 252 295 352 358 351 339 339 330 330 359 17 30 58 177 200 205 198
64 65 62 59 54 56 59 54 51 43 33 26 33 39 37 32 24 37 42 32 27 11 14 25 32 335 302 275 242 196 221 200 182 173 153 308 360 41 180 198 177 187 217 221 235 243 282 319 325 327 322 321 318 312 321 328 348 350 238 216 210 202
49 52 50 48 50 53 56 57 56 49 39 34 33 40 45 39 33 40 38 33 34 33 31 21 2 325 312 286 259 260 268 247 208 195 196 221 263 309 181 179 176 198 224 236 248 265 298 306 315 319 316 314 309 302 306 308 314 306 270 239 211 204
49 52 48 41 45 51 53 55 55 53 46 44 44 48 52 45 37 37 35 29 33 39 28 18 5 334 311 288 273 279 286 291 276 256 247 245 249 262 256 199 206 215 222 258 274 282 292 296 308 314 310 307 304 296 299 303 308 291 257 241 211 205
53 55 57 51 53 57 56 51 48 48 48 52 54 58 59 51 46 45 43 34 35 37 25 18 9 349 328 299 284 291 297 302 303 296 273 267 262 266 276 263 251 242 238 283 293 291 296 301 301 300 294 294 299 295 295 300 307 279 244 232 210 206
57 55 56 56 59 58 54 50 46 45 45 48 49 54 57 55 55 57 59 52 43 38 32 20 8 3 351 331 315 314 304 295 299 298 287 282 275 275 279 279 277 266 271 287 288 291 292 292 294 295 291 288 295 302 302 305 314 273 236 229 214 210
51 44 40 42 47 46 44 44 43 41 38 34 35 45 51 51 53 53 61 65 49 42 47 37 25 18 8 7 1 343 325 299 302 297 289 285 283 281 273 277 282 275 279 285 286 290 291 291 292 294 292 286 288 306 321 313 311 281 235 230 221 216
39 35 33 33 34 31 31 28 27 31 14 357 18 44 52 54 49 40 41 48 41 38 48 49 50 44 30 32 20 2 360 338 327 312 292 288 292 289 274 275 281 279 284 289 290 296 301 299 295 295 291 285 279 291 326 326 305 283 233 232 225 218
37 39 37 35 32 25 26 18 16 13 344 344 358 33 60 60 50 34 24 33 36 28 32 42 56 65 56 52 40 25 25 7 351 328 295 306 314 303 294 289 290 295 299 302 302 298 298 294 293 299 288 277 277 283 307 321 293 263 232 233 229 221
46 49 45 41 37 34 35 14 358 342 339 345 334 259 120 111 76 42 18 31 38 31 38 41 46 62 64 62 60 54 56 35 10 343 275 303 315 311 306 302 304 315 314 309 309 301 293 289 289 292 287 283 279 277 297 306 260 230 231 234 231 226
51 54 52 51 42 37 37 18 4 347 343 343 324 238 147 157 118 84 41 31 30 31 47 50 39 48 58 53 54 59 66 61 31 32 108 278 288 289 291 301 306 309 309 304 301 298 295 294 295 292 294 293 278 266 292 291 261 237 237 235 232 230
48 50 52 57 47 37 35 28 18 359 354 354 322 293 294 225 129 112 105 65 32 25 34 41 35 48 59 44 40 46 48 56 54 59 81 306 278 266 275 299 303 301 302 300 296 296 297 294 297 297 295 290 281 283 294 282 271 260 251 241 237 234
43 45 44 50 42 36 36 28 18 11 11 13 8 347 340 332 320 80 119 87 56 30 18 15 17 36 55 38 36 39 34 27 21 36 51 343 324 275 272 294 297 298 294 293 295 300 304 297 300 301 298 297 290 289 295 290 281 267 257 247 240 239
46 44 37 38 34 28 26 20 16 19 25 23 14 2 355 350 338 344 346 32 47 36 20 3 0 6 360 7 21 41 33 359 343 349 336 331 334 311 314 315 307 307 293 291 300 303 305 300 307 309 303 306 303 294 295 294 283 265 259 250 240 239
51 47 39 36 34 28 23 22 22 25 33 31 19 14 11 5 357 359 351 350 4 6 5 347 356 5 6 6 10 6 26 1 330 314 318 317 321 319 331 331 333 336 315 305 310 310 308 302 308 317 313 310 310 302 289 282 277 266 256 246 238 237
52 52 50 47 46 46 42 37 31 29 33 34 33 31 26 22 24 25 10 355 358 1 358 338 342 358 6 1 356 350 352 10 7 284 308 304 310 312 301 294 320 344 333 319 317 315 316 313 310 313 316 313 309 305 292 281 278 271 260 245 238 241
51 53 57 55 53 56 58 55 46 39 38 42 43 38 34 33 37 37 23 10 4 4 5 358 345 346 352 347 348 352 349 357 355 335 332 324 317 313 299 286 302 320 320 314 312 311 312 311 311 309 310 310 306 301 296 289 282 273 263 252 245 246
49 50 54 54 55 59 60 59 55 50 46 48 45 39 39 34 31 28 20 15 6 360 360 359 359 352 346 342 343 347 348 349 343 336 334 326 324 325 316 309 314 318 322 322 322 320 314 308 307 304 301 304 304 299 294 287 281 276 265 260 257 253
51 50 53 53 54 57 58 57 55 51 47 46 42 38 38 34 30 27 20 16 7 1 356 351 353 349 342 341 336 334 336 338 330 326 327 326 327 331 332 330 331 335 331 330 331 328 329 325 309 296 299 306 309 304 297 286 275 271 267 264 261 258
53 54 55 54 52 52 53 52 51 50 48 45 41 37 34 30 29 26 23 21 16 13 5 359 357 350 343 342 341 335 330 334 333 326 326 327 326 328 331 330 327 327 327 326 324 323 332 332 311 295 307 316 320 315 304 299 282 268 265 264 262 261
57 58 58 58 58 56 54 53 52 53 53 49 44 41 36 32 31 30 29 26 23 20 14 12 10 4 357 349 349 347 338 339 340 333 332 333 331 328 327 327 324 321 321 319 318 318 324 331 314 296 314 320 327 331 324 327 308 280 275 265 261 261
57 57 57 59 60 60 59 60 61 57 54 49 45 43 41 39 37 36 35 32 30 25 21 20 18 17 13 3 356 352 350 349 346 343 338 335 334 332 329 328 327 323 317 310 311 318 321 330 322 308 322 319 324 338 330 339 335 319 318 284 256 250
59 57 57 59 60 62 63 63 65 63 58 53 47 44 44 42 38 35 33 31 31 29 27 26 24 24 22 18 14 7 3 359 356 354 348 343 338 335 334 333 333 333 327 313 310 314 312 316 320 312 318 297 314 354 305 324 328 317 330 336 269 243
62 62 60 60 60 61 62 60 60 60 58 54 49 43 40 37 35 34 32 29 28 27 27 28 27 27 26 25 24 19 15 9 5 2 358 356 349 341 338 338 341 340 338 333 324 318 308 304 306 302 287 267 301 344 259 286 330 311 320 339 310 246
61 62 61 60 60 60 60 57 53 51 48 47 45 41 36 33 32 34 33 32 32 29 27 27 27 28 26 24 23 21 18 14 11 8 6 3 358 352 345 341 340 334 334 338 335 329 318 308 300 294 292 274 264 266 274 299 333 312 318 328 328 259
61 60 58 57 56 57 57 55 52 50 46 45 44 39 35 33 32 32 33 33 34 35 32 28 27 26 23 21 21 19 15 13 11 9 8 6 3 1 356 349 343 335 331 332 337 336 323 316 308 293 291 287 280 279 285 288 262 263 318 319 315 308
63 60 57 54 53 53 53 51 49 47 45 43 39 34 30 31 31 28 29 30 30 31 30 29 26 24 24 22 20 17 14 13 11 10 10 8 5 1 357 354 350 346 341 333 337 336 323 319 311 297 295 294 291 289 290 290 274 259 250 295 304 303
62 59 55 53 52 52 50 46 43 40 39 34 29 28 23 25 31 26 24 24 23 25 26 25 23 22 24 22 18 15 13 12 9 8 8 6 4 1 357 355 352 350 346 338 334 328 319 318 314 312 319 317 310 303 297 298 288 265 237 233 275 286
59 58 55 50 48 51 49 44 39 34 33 29 23 21 17 19 27 25 23 19 14 19 23 19 17 18 20 18 15 12 10 9 7 6 4 2 0 358 357 356 353 350 346 342 336 328 320 314 315 326 331 323 318 314 305 301 290 268 251 242 241 266
57 54 55 50 46 50 47 42 37 31 28 25 19 17 20 24 24 21 21 16 10 14 20 17 14 11 9 9 9 8 8 9 8 6 2 360 357 353 350 351 353 350 346 345 341 334 328 320 320 327 322 306 300 299 295 291 285 279 269 250 247 274
58 54 59 55 51 53 48 43 38 30 25 20 13 14 24 28 23 18 16 12 7 10 14 10 5 359 357 359 358 358 2 1 1 2 358 357 357 353 347 342 346 349 346 343 341 335 331 328 327 326 314 298 294 289 281 283 287 285 276 265 259 257
66 65 70 62 59 58 51 43 39 32 27 19 11 14 24 24 17 11 7 6 4 6 7 2 357 353 352 356 354 351 353 351 351 358 358 357 359 358 352 342 338 344 347 343 338 333 329 328 329 327 317 305 303 298 288 286 286 284 283 280 269 251
75 73 78 74 68 60 47 38 37 35 30 23 16 17 18 14 9 3 359 0 359 358 358 356 356 357 359 5 5 3 4 0 358 1 1 359 359 359 358 350 339 339 346 347 340 334 329 328 328 327 324 315 307 300 292 288 283 282 287 288 280 269
90 74 86 91 78 60 49 45 46 42 32 27 23 17 14 12 9 3 359 3 2 357 353 354 358 0 6 12 10 7 8 4 360 358 359 360 359 357 355 353 348 343 346 350 345 340 334 328 325 323 321 317 311 305 297 295 294 292 292 289 285 282
118 90 99 97 77 65 64 61 54 43 31 26 24 19 21 22 15 6 3 7 6 1 358 359 0 3 8 11 7 3 0 358 355 353 354 357 356 353 352 352 352 348 346 349 348 344 337 327 322 319 318 316 313 309 307 305 302 298 295 290 287 285
133 111 110 96 78 74 72 62 49 40 38 33 26 24 24 18 11 7 7 6 2 1 2 0 358 360 4 5 3 0 358 357 359 357 356 356 353 350 350 352 353 349 347 348 346 343 338 330 324 320 318 317 314 311 310 309 303 299 297 293 287 282